Miscellaneous Local Product
Issued by NWS Hastings, NE

Home | Current Version | Previous Version | Graphics & Text | Print | Product List | Glossary On
Versions: 1 2 3 4 5 6 7 8 9 10 11 12 13 14 15 16 17 18 19 20 21 22 23 24 25 26 27 28 29 30 31 32 33 34 35 36 37 38 39 40 41 42 43 44 45 46 47 48 49 50
000
AXUS43 KGID 290502
MISGRI

GID CWA HOURLY WEATHER ROUNDUP
NATIONAL WEATHER SERVICE HASTINGS NE
1200 AM CDT WED JUL 29 2015

NOTE: "FAIR" INDICATES FEW OR NO CLOUDS BELOW 12,000 FEET WITH NO
SIGNIFICANT WEATHER AND/OR OBSTRUCTIONS TO VISIBILITY.

...SOUTH CENTRAL NEBRASKA...

CITY           SKY/WX    TMP DP  RH WIND       PRES   REMARKS
GRAND ISLAND   CLEAR     61  57  87 NE6       30.08R
HASTINGS       CLEAR     66  57  72 NE7       30.08R
KEARNEY        CLEAR     66  55  68 N6        30.09R
ORD            CLEAR     60  56  86 CALM      30.09R
YORK           CLEAR     64  59  82 N8        30.05R
AURORA         CLEAR     63  60  91 N7        30.07R
LEXINGTON      CLEAR     62  57  86 N6        30.11R
HOLDREGE       CLEAR     63  57  80 N3        30.09R
HEBRON         PTCLDY    71  60  68 NE6       30.04R

...NEBRASKA PANHANDLE...

CITY           SKY/WX    TMP DP  RH WIND       PRES   REMARKS
CHADRON        CLEAR     53  43  68 CALM      30.21R
ALLIANCE       CLEAR     54  43  66 N3        30.21R
SCOTTSBLUFF    CLEAR     58  44  60 NE9       30.22R
SIDNEY         PTCLDY    58  40  51 SE3       30.24R

...WESTERN AND NORTH CENTRAL NEBRASKA...

CITY           SKY/WX    TMP DP  RH WIND       PRES   REMARKS
VALENTINE      CLEAR     64  46  52 N8        30.15R
AINSWORTH      CLEAR     59  50  71 N8        30.15R
ONEILL         CLEAR     62  59  90 CALM      30.11R
BROKEN BOW     CLEAR     62  47  57 N7        30.12R
IMPERIAL       CLEAR     62  49  62 CALM      30.17R
NORTH PLATTE   CLEAR     59  50  72 W3        30.14R
MCCOOK         CLEAR     64  52  64 N9        30.12R

...EASTERN NEBRASKA...

CITY           SKY/WX    TMP DP  RH WIND       PRES   REMARKS
NORFOLK        CLEAR     61  58  90 CALM      30.06R
SO SIOUX CITY  CLEAR     67  60  78 CALM      30.04R
TEKAMAH        CLEAR     67  64  90 N5        30.03R
COLUMBUS       CLEAR     61  55  82 N5        30.06R
ALBION         CLEAR     59  54  84 NW3       30.09R
OMAHA EPPLEY   MOCLDY    73  64  73 N7        30.03R
OFFUTT AFB     CLOUDY    76  62  62 NE8       30.03R
MILLARD        CLOUDY    76  63  63 NE5       30.02R
LINCOLN        PTCLDY    68  63  84 N7        30.04R
NEBRASKA CITY  CLOUDY    71  69  95 NE6       30.02R
BEATRICE       CLOUDY    74  63  69 N7        30.03R
FALLS CITY     LGT RAIN  72  71  97 N9G20     30.01R FOG

...NORTHERN KANSAS...

CITY           SKY/WX    TMP DP  RH WIND       PRES   REMARKS
GOODLAND       MOCLDY    61  51  70 N5        30.17S
HILL CITY      CLEAR     63  59  87 N7        30.09R
NORTON         CLEAR     63  54  72 N10       30.09R
PHILLIPSBURG   CLEAR     68  63  83 CALM      30.08R
SMITH CENTER   CLEAR     66  59  77 N6        30.07R
HAYS           MOCLDY    73  55  53 N8        30.06R
RUSSELL        MOCLDY    75  59  57 NE13      30.03R
CONCORDIA      CLOUDY    75  61  61 NE12      30.04R
SALINA         CLOUDY    80  65  59 N17       30.00R
TOPEKA         CLOUDY    86  75  69 W5        29.94R HX  95



USA.gov is the U.S. government's official web portal to all federal, state and local government web resources and services.